Temperature
19 19 19 19 19 19 19 19 19 19 19 19 19 19 19 19 19 19 19 18 18 18 18 18 18 18 18 18 18 18 18 18 18 18 17 17 17 17 17 17 17 17 17
19 19 19 19 19 19 19 19 19 19 19 19 19 19 19 19 19 19 19 18 18 18 18 18 18 18 18 18 18 18 18 18 18 17 17 17 17 17 17 17 17 17 17
19 19 19 19 19 19 19 19 19 19 19 19 19 19 19 19 19 18 18 18 18 18 18 18 18 18 18 18 18 18 18 17 17 17 17 17 17 17 17 17 17 17 17
20 19 19 19 19 19 19 19 19 19 19 19 19 19 19 19 18 18 18 18 18 18 18 18 18 18 18 18 17 17 17 17 17 17 17 17 17 17 17 17 17 17 17
20 19 19 19 19 19 19 19 19 19 19 19 19 19 19 19 18 18 18 18 18 18 18 18 18 18 18 17 17 17 17 17 17 17 17 17 17 17 17 17 17 17 17
20 19 19 19 19 19 19 19 19 19 19 19 19 19 19 18 18 18 18 18 18 18 18 18 18 18 18 17 17 17 17 17 18 18 18 17 17 17 17 17 17 17 16
20 20 19 19 19 19 19 19 19 19 19 19 19 19 18 18 18 18 18 18 18 18 18 18 18 18 18 17 17 17 17 17 18 18 17 17 17 17 17 17 17 17 17
20 20 20 19 19 19 19 19 19 19 19 19 19 19 18 18 18 18 18 18 18 18 18 18 18 18 17 17 17 17 17 18 17 17 17 17 17 17 17 17 17 17 17
20 20 20 20 19 19 19 19 19 19 19 19 18 18 18 18 18 18 18 18 18 18 18 18 18 18 18 17 17 17 17 18 18 18 17 17 17 17 17 17 17 17 17
20 20 20 20 20 19 19 19 19 19 19 19 18 18 18 18 18 18 18 18 18 18 18 18 18 18 18 18 17 17 17 17 18 18 18 18 17 17 17 17 17 17 17
20 20 20 20 20 19 19 19 19 19 19 19 19 18 18 18 18 18 18 18 18 18 18 18 18 18 18 18 17 17 17 17 18 18 18 18 17 17 17 17 17 17 17
20 20 20 20 20 20 19 19 19 19 19 19 19 18 18 18 18 18 18 18 18 18 18 18 18 18 18 18 17 18 18 18 18 18 18 18 18 17 17 17 17 17 17
20 20 20 20 20 20 19 19 19 19 19 18 18 18 18 18 18 18 18 18 18 18 18 18 18 18 18 18 18 18 18 18 18 18 18 18 18 17 17 17 17 17 17
20 20 20 20 20 20 19 19 19 19 19 19 18 18 18 18 18 18 18 18 18 18 18 18 18 18 18 18 18 18 18 18 18 18 18 18 18 18 17 17 17 17 17
20 20 20 20 20 19 19 19 19 19 19 19 18 18 18 18 18 18 18 18 18 18 18 18 18 18 18 18 18 18 18 18 18 18 18 18 18 18 18 17 17 17 17
21 20 20 20 20 19 19 19 19 19 19 19 18 18 18 18 18 18 18 18 18 18 18 18 18 18 18 18 18 18 18 18 18 18 18 18 18 17 17 17 17 17 17
21 21 20 20 20 20 19 19 19 19 19 19 19 18 18 18 18 18 18 18 18 18 18 18 18 18 18 18 18 18 18 18 18 18 18 18 18 17 17 17 17 17 17
21 21 21 20 20 20 20 19 19 19 19 19 19 18 18 18 18 18 18 18 18 18 18 18 18 18 18 18 18 18 18 18 18 18 18 18 17 17 17 17 17 17 17
22 21 21 21 20 20 20 19 19 19 19 19 19 19 19 18 18 18 18 18 18 18 18 18 18 18 18 18 18 18 18 18 18 18 18 18 18 18 17 17 17 17 17
22 21 21 21 20 20 20 19 19 19 19 19 19 19 19 19 19 18 18 18 18 18 18 18 18 18 18 18 18 18 18 18 18 18 18 18 18 18 17 17 17 17 17
22 21 21 21 21 20 20 20 19 19 19 19 19 19 19 19 19 19 18 18 18 18 18 18 18 18 18 18 18 18 18 18 18 18 18 18 18 18 18 17 17 17 17
22 21 21 21 21 20 20 20 20 20 19 19 19 19 19 19 19 19 18 18 18 18 18 18 18 18 18 18 18 18 18 18 18 18 18 18 18 18 18 18 18 18 18
22 22 21 21 21 21 20 20 20 19 19 19 19 19 19 19 19 19 19 18 18 18 18 18 18 18 18 18 18 18 18 18 18 18 18 18 18 18 18 18 18 18 18
23 22 22 21 21 21 20 20 20 20 20 20 20 19 19 19 19 19 19 19 18 18 18 18 18 18 18 18 18 18 18 18 18 18 18 18 18 18 18 18 18 18 18
23 22 22 22 21 21 21 20 20 20 20 20 19 19 19 19 19 19 19 19 19 18 18 18 18 18 18 18 18 18 18 18 18 17 18 18 18 18 18 18 18 18 18
23 22 22 22 21 21 21 20 20 20 20 19 19 19 19 19 19 19 19 18 18 18 18 18 18 18 18 18 18 18 18 18 18 18 18 18 18 18 18 18 18 18 18
Wind_Speed
4 7 14 16 17 17 18 18 19 19 19 19 19 19 19 20 19 19 20 19 19 19 20 20 20 20 20 20 20 20 20 20 19 19 19 19 18 19 19 19 18 17 19
6 10 15 16 17 17 18 18 18 18 18 18 19 19 19 19 19 19 19 19 19 19 19 20 20 19 19 20 20 20 20 19 19 19 18 17 18 18 18 18 17 16 18
9 11 14 16 17 17 17 17 18 18 18 18 18 18 18 18 19 19 19 19 19 19 19 20 19 19 19 18 18 18 19 19 19 19 17 15 16 17 17 18 18 18 18
11 12 14 17 17 17 17 17 18 18 18 18 18 18 18 18 18 19 18 18 19 19 19 19 18 18 17 17 17 17 17 17 18 17 14 13 14 16 17 17 17 17 17
10 12 15 17 17 17 17 17 17 18 18 18 18 18 18 18 18 18 18 18 19 19 18 18 17 17 16 15 15 14 14 15 16 15 13 13 13 16 16 16 16 16 16
9 12 16 17 17 16 16 16 17 17 18 18 18 18 18 18 18 18 18 18 18 17 17 16 16 15 14 14 13 13 13 14 15 14 13 13 13 15 16 15 15 15 15
9 11 15 17 16 16 16 16 17 17 17 17 17 17 17 18 18 18 17 17 17 16 16 15 14 13 12 12 11 12 12 14 14 13 12 12 13 15 15 15 14 14 14
11 10 14 16 16 16 16 16 16 16 16 16 16 17 17 17 17 16 16 16 16 15 14 13 12 11 10 10 11 11 12 13 14 13 12 12 14 15 15 14 13 13 13
11 10 10 13 15 15 15 15 15 15 15 15 15 16 16 16 16 15 15 14 14 13 12 11 10 10 9 9 9 10 11 13 13 12 12 12 14 14 14 13 13 12 13
9 8 8 10 11 12 13 14 15 14 14 14 14 15 15 15 14 14 13 13 12 11 10 9 9 8 7 7 8 9 11 12 11 12 11 12 15 14 14 13 13 12 12
10 7 7 8 10 11 11 12 13 13 13 13 13 13 12 10 10 10 11 11 11 10 9 7 6 5 5 4 5 7 8 8 10 11 11 14 15 14 13 13 12 12 12
11 9 7 8 8 9 10 10 9 9 10 9 9 10 9 8 8 9 10 10 10 9 7 5 3 2 2 2 3 5 6 8 10 11 12 15 15 14 13 12 12 12 12
12 11 9 8 9 8 7 8 7 7 8 8 9 9 8 7 6 7 6 6 6 6 4 2 0 1 1 1 1 3 6 7 9 10 12 15 15 14 13 13 12 12 12
12 11 10 9 8 8 9 7 6 6 6 6 8 9 8 6 5 5 4 4 4 4 3 2 2 2 2 1 2 5 6 8 9 10 13 15 15 14 14 13 12 12 12
11 11 11 10 9 8 7 6 7 6 6 7 8 9 10 7 4 4 3 4 4 4 4 3 2 2 1 2 4 6 7 8 10 11 12 15 15 14 14 14 13 13 12
12 11 10 10 9 8 6 5 6 7 8 8 8 9 11 10 7 5 4 3 4 5 5 5 3 2 1 2 3 5 7 8 9 10 11 13 15 15 14 14 14 14 13
12 11 10 10 9 8 7 6 7 8 9 7 8 10 11 10 9 6 4 3 4 5 5 3 1 1 1 1 1 3 5 7 9 10 12 12 13 15 15 15 15 15 14
12 11 11 11 9 8 6 5 5 7 7 7 8 9 11 11 10 7 4 3 5 4 3 2 1 1 0 0 1 1 2 5 8 10 11 12 13 13 15 16 16 16 16
13 12 10 9 9 8 6 5 5 5 6 7 8 8 10 10 10 7 4 4 5 3 2 2 1 2 1 1 2 2 2 3 5 8 9 12 14 14 14 16 18 18 18
12 12 10 9 9 7 5 4 3 3 3 5 6 8 10 10 10 8 5 5 5 2 2 1 1 1 2 2 2 2 2 3 4 5 7 10 13 14 15 15 16 17 19
12 12 11 10 9 7 5 4 4 3 3 3 5 8 9 9 10 8 4 4 4 3 4 3 2 2 1 1 1 2 3 3 5 5 6 6 8 12 14 16 16 15 15
14 13 12 11 10 9 6 5 4 4 3 4 4 6 8 9 8 8 5 4 4 3 4 3 3 2 2 2 2 1 3 4 3 4 4 6 7 8 10 15 16 16 16
15 15 14 12 11 10 8 4 3 2 1 1 2 3 5 8 8 7 7 5 4 4 4 4 4 4 3 2 3 4 2 3 4 3 4 5 6 6 6 9 14 16 17
15 14 12 11 11 10 9 7 7 6 5 5 4 4 4 7 8 8 7 6 5 4 4 5 4 3 4 3 2 3 4 4 2 3 4 3 5 6 6 7 9 13 16
14 13 12 11 11 10 9 9 8 6 5 4 3 4 4 4 6 6 7 5 5 4 5 5 4 4 4 4 3 2 2 2 3 3 4 4 3 4 6 6 7 9 14
13 12 12 12 11 10 10 9 9 8 7 6 5 5 4 4 4 5 5 5 5 4 5 5 5 5 4 4 4 3 3 3 3 4 5 5 5 5 4 4 5 7 11
Wind_Direction
88 103 99 97 96 94 92 92 92 93 94 96 97 98 99 101 104 106 108 110 111 111 110 110 110 112 112 113 114 114 114 114 113 113 115 117 117 117 116 115 113 112 113
124 112 104 101 99 97 96 95 94 94 96 98 99 100 101 103 105 107 109 110 111 111 112 112 112 112 112 113 113 113 114 113 113 113 113 114 117 118 117 116 116 117 115
115 112 107 104 102 101 99 97 97 97 97 98 100 101 102 104 106 108 110 111 112 112 112 111 111 111 112 113 114 115 115 114 113 111 109 108 113 116 118 118 118 118 117
117 113 110 108 105 103 102 100 99 99 99 98 99 101 103 105 108 108 109 111 112 112 111 111 111 110 110 111 112 113 115 114 114 110 105 106 111 116 119 121 120 119 119
112 114 115 111 108 106 104 102 102 102 101 100 99 100 103 104 108 110 110 110 111 111 111 111 110 109 108 107 108 111 114 114 114 110 105 104 111 118 120 122 122 123 122
114 119 120 116 112 110 107 106 105 104 103 102 102 101 102 104 108 111 110 110 111 112 112 110 110 108 106 104 104 108 111 115 115 112 112 112 116 122 122 123 123 124 123
121 122 122 119 117 116 112 109 107 106 106 105 105 105 104 105 105 107 108 108 109 109 109 108 107 106 104 102 101 106 109 117 118 117 116 118 123 125 125 125 125 126 125
125 123 125 123 121 119 117 115 113 111 111 111 110 110 109 108 108 108 109 108 109 109 107 107 107 107 103 100 98 105 114 120 125 125 124 126 129 128 128 128 129 130 129
126 123 122 125 124 123 122 120 119 118 117 117 117 116 115 114 114 114 114 113 113 112 111 110 109 107 101 99 95 101 115 120 126 131 133 134 134 132 132 133 133 133 132
128 126 126 125 125 126 126 126 126 126 125 124 123 122 121 120 120 120 120 120 119 118 116 113 110 105 100 99 97 105 114 117 127 134 137 141 140 138 137 137 138 137 137
137 140 138 136 136 136 135 134 133 132 132 130 130 128 124 120 123 125 128 128 126 127 126 122 113 105 98 96 98 107 109 119 132 139 145 150 147 146 144 143 143 143 144
153 156 153 150 150 152 144 139 141 140 140 139 138 136 134 136 138 136 136 135 135 134 136 136 121 89 60 56 89 106 115 125 132 145 153 154 152 151 150 150 150 150 151
160 160 163 162 164 162 144 152 156 151 152 153 154 153 150 146 145 140 140 138 143 146 148 155 170 323 320 307 150 136 135 140 142 151 159 159 158 158 158 159 158 158 160
161 164 168 165 169 166 157 162 166 164 167 167 167 163 155 148 146 152 158 163 169 177 188 215 264 282 282 225 156 147 151 150 152 156 165 167 167 168 168 167 168 169 168
163 165 167 163 164 163 159 171 169 172 173 172 168 168 160 155 157 162 174 179 183 186 194 212 232 248 232 161 147 150 151 156 159 164 171 175 175 176 177 178 179 180 179
164 163 162 162 161 156 159 162 163 173 177 173 172 174 166 162 162 163 169 181 188 188 195 196 195 199 185 141 137 155 160 167 170 173 178 183 185 185 187 188 188 190 190
162 160 158 159 155 152 157 163 166 172 170 172 177 179 174 167 166 166 167 174 190 187 178 172 166 141 147 135 150 154 164 169 176 180 185 189 193 196 198 198 198 199 200
160 161 164 162 157 158 156 155 161 169 169 174 179 176 177 174 170 166 164 183 192 177 158 153 142 118 106 149 200 207 173 179 185 190 191 195 197 202 207 208 206 206 208
165 164 166 159 161 163 158 157 159 161 166 172 173 174 178 178 174 170 179 190 186 166 166 184 152 149 171 212 239 236 211 199 195 197 199 203 205 207 208 214 214 212 213
166 164 165 165 168 163 155 148 147 148 166 172 174 179 180 179 177 177 182 190 181 166 186 184 171 171 188 207 253 270 250 237 221 212 210 209 210 212 210 213 216 219 220
167 165 168 170 175 167 162 164 167 179 181 184 193 191 189 187 182 180 184 183 179 185 196 187 170 190 220 165 66 338 317 269 241 231 217 210 213 213 211 213 214 215 220
174 172 171 176 178 178 181 176 172 172 185 189 194 194 196 196 191 189 182 183 186 190 198 194 174 175 229 168 147 111 322 323 297 245 224 219 218 212 211 215 214 214 217
179 179 180 180 181 183 180 165 159 138 134 180 205 203 206 199 198 196 187 187 189 188 199 204 190 180 211 229 181 164 184 248 297 300 256 235 220 215 219 218 218 219 219
183 181 178 178 181 185 179 175 174 181 194 206 202 204 209 205 203 201 194 196 194 191 198 206 197 190 189 225 237 212 199 186 211 297 304 267 237 228 224 226 225 223 222
181 180 179 179 184 187 186 185 185 193 201 195 189 195 206 214 208 202 198 198 197 197 203 207 200 201 199 208 221 229 231 220 204 213 275 295 285 249 232 229 227 225 225
178 179 180 181 189 190 190 191 192 195 194 186 190 195 206 209 213 209 200 204 204 203 206 212 211 211 217 219 224 217 209 219 223 212 241 265 273 273 249 236 228 227 229
Height
1528 1527 1527 1526 1526 1525 1525 1525 1525 1525 1525 1526 1526 1527 1527 1528 1529 1530 1531 1532 1534 1535 1536 1538 1539 1540 1541 1543 1544 1545 1546 1547 1548 1549 1550 1551 1552 1553 1554 1555 1556 1557 1558
1529 1529 1529 1529 1529 1528 1528 1528 1528 1528 1528 1529 1529 1530 1530 1531 1532 1532 1534 1535 1536 1538 1539 1540 1542 1543 1544 1545 1546 1548 1549 1550 1551 1552 1553 1554 1555 1556 1556 1557 1558 1559 1560
1531 1531 1531 1531 1531 1531 1531 1531 1531 1531 1531 1531 1532 1532 1533 1534 1534 1535 1536 1538 1539 1540 1541 1543 1544 1545 1547 1548 1549 1550 1551 1553 1554 1555 1556 1556 1557 1558 1559 1559 1560 1561 1562
1533 1534 1534 1534 1534 1534 1534 1534 1534 1534 1534 1535 1535 1536 1536 1536 1537 1538 1539 1540 1542 1543 1544 1545 1547 1548 1550 1551 1552 1553 1554 1555 1556 1557 1558 1559 1559 1560 1561 1561 1562 1563 1564
1536 1536 1536 1536 1537 1537 1537 1537 1537 1537 1538 1538 1538 1539 1539 1540 1540 1541 1542 1543 1544 1545 1547 1548 1549 1551 1553 1554 1555 1556 1556 1557 1558 1559 1560 1561 1562 1563 1563 1564 1564 1565 1566
1537 1538 1539 1539 1539 1539 1540 1540 1540 1541 1541 1541 1541 1541 1542 1543 1543 1544 1545 1546 1547 1548 1549 1551 1552 1554 1555 1556 1557 1558 1559 1560 1561 1562 1562 1563 1564 1565 1565 1566 1567 1567 1568
1539 1540 1541 1541 1542 1542 1542 1543 1543 1543 1544 1544 1544 1545 1545 1546 1546 1547 1548 1549 1550 1551 1553 1554 1555 1557 1558 1559 1560 1561 1561 1562 1563 1564 1564 1565 1566 1566 1567 1568 1568 1569 1570
1541 1542 1543 1544 1544 1545 1545 1546 1546 1546 1547 1547 1547 1548 1548 1549 1550 1550 1551 1552 1553 1554 1556 1557 1558 1560 1561 1562 1562 1563 1564 1564 1565 1565 1566 1567 1567 1568 1569 1569 1570 1571 1572
1544 1544 1545 1546 1546 1547 1548 1548 1549 1549 1550 1550 1550 1551 1552 1552 1553 1554 1555 1556 1556 1558 1559 1560 1561 1562 1563 1564 1564 1565 1565 1566 1566 1567 1568 1568 1569 1569 1570 1571 1572 1572 1573
1546 1546 1547 1548 1549 1549 1550 1550 1551 1551 1552 1553 1553 1554 1555 1555 1556 1557 1558 1558 1559 1560 1561 1563 1564 1565 1565 1566 1567 1567 1567 1568 1568 1569 1569 1570 1570 1571 1572 1572 1573 1574 1574
1547 1548 1549 1550 1550 1551 1552 1552 1553 1554 1554 1555 1556 1556 1557 1558 1559 1559 1560 1561 1562 1563 1564 1565 1566 1567 1568 1568 1568 1569 1569 1569 1570 1570 1570 1571 1571 1572 1573 1573 1574 1575 1575
1547 1549 1550 1551 1552 1553 1554 1554 1555 1556 1557 1557 1558 1559 1559 1560 1561 1562 1562 1563 1564 1565 1566 1567 1568 1569 1569 1570 1570 1570 1571 1571 1571 1571 1572 1572 1572 1573 1574 1574 1575 1576 1576
1548 1549 1551 1553 1553 1554 1555 1556 1557 1557 1558 1559 1560 1560 1561 1562 1563 1563 1564 1565 1566 1567 1568 1569 1570 1570 1571 1571 1571 1571 1571 1572 1572 1572 1573 1573 1573 1574 1574 1575 1576 1576 1577
1548 1550 1552 1553 1554 1555 1557 1558 1558 1559 1560 1560 1561 1562 1563 1563 1564 1565 1566 1567 1568 1569 1570 1570 1571 1571 1571 1572 1572 1572 1572 1573 1573 1573 1573 1574 1574 1574 1575 1575 1576 1577 1577
1549 1550 1552 1554 1555 1556 1557 1558 1559 1560 1561 1562 1562 1563 1564 1565 1566 1567 1567 1568 1569 1569 1570 1571 1571 1572 1572 1572 1572 1573 1573 1573 1573 1574 1574 1574 1574 1575 1575 1575 1576 1577 1577
1548 1550 1552 1554 1555 1557 1558 1558 1559 1560 1561 1562 1563 1564 1565 1566 1567 1567 1568 1569 1569 1570 1571 1571 1571 1572 1572 1573 1573 1573 1573 1573 1574 1574 1574 1574 1574 1574 1575 1575 1576 1576 1577
1547 1550 1552 1554 1555 1557 1558 1559 1560 1561 1561 1562 1563 1564 1565 1566 1567 1568 1569 1569 1570 1570 1571 1571 1571 1572 1572 1573 1573 1573 1574 1574 1573 1573 1573 1574 1574 1574 1574 1575 1575 1576 1576
1547 1549 1551 1553 1555 1556 1558 1559 1560 1561 1562 1562 1563 1564 1565 1566 1567 1568 1568 1569 1570 1570 1571 1571 1571 1572 1572 1572 1573 1573 1573 1573 1573 1573 1573 1573 1573 1574 1574 1574 1574 1575 1575
1546 1548 1550 1552 1554 1556 1557 1559 1560 1561 1561 1562 1563 1564 1564 1566 1567 1568 1568 1569 1569 1570 1570 1571 1571 1572 1572 1572 1573 1573 1573 1573 1572 1572 1572 1572 1572 1573 1573 1573 1573 1573 1574
1545 1547 1549 1551 1553 1555 1556 1558 1559 1560 1561 1562 1563 1563 1564 1565 1566 1567 1568 1568 1569 1569 1570 1570 1571 1571 1571 1572 1572 1572 1572 1572 1571 1571 1571 1571 1571 1571 1571 1571 1571 1572 1572
1543 1545 1547 1549 1551 1553 1555 1556 1557 1558 1560 1561 1562 1563 1564 1564 1565 1566 1566 1567 1568 1568 1569 1569 1570 1570 1570 1571 1571 1571 1570 1570 1569 1569 1569 1569 1569 1569 1569 1569 1569 1569 1569
1540 1543 1545 1547 1549 1551 1553 1555 1556 1558 1559 1560 1561 1561 1562 1563 1564 1565 1565 1566 1567 1567 1568 1568 1568 1568 1569 1569 1569 1569 1568 1569 1567 1567 1567 1566 1566 1566 1566 1567 1567 1567 1567
1537 1540 1542 1545 1547 1549 1552 1553 1555 1556 1557 1558 1559 1560 1561 1562 1562 1563 1564 1564 1565 1565 1566 1566 1566 1567 1567 1567 1568 1568 1567 1566 1565 1564 1564 1564 1563 1564 1564 1564 1564 1564 1564
1534 1537 1540 1543 1545 1547 1550 1551 1552 1553 1554 1555 1556 1558 1559 1560 1560 1561 1562 1562 1563 1563 1563 1564 1564 1564 1565 1564 1565 1565 1566 1565 1564 1562 1562 1561 1561 1561 1561 1560 1560 1560 1560
1532 1535 1538 1541 1543 1545 1547 1549 1550 1551 1552 1553 1555 1556 1557 1558 1559 1559 1559 1560 1560 1560 1561 1561 1562 1562 1562 1562 1562 1562 1562 1562 1562 1561 1559 1558 1558 1558 1557 1557 1557 1556 1557
1530 1533 1535 1538 1540 1542 1544 1546 1547 1549 1550 1551 1552 1553 1554 1555 1556 1557 1557 1557 1558 1558 1558 1558 1559 1559 1559 1559 1559 1559 1559 1559 1558 1558 1557 1555 1555 1554 1554 1554 1553 1553 1553